Location: Brachbach
(49.1847°N, 9.7240°E)
Time: 16:09:49
(UTC+00:00)

CZ-4B DEB - Visible Passes

Search period start: 12 July 2025 00:00
Search period end: 22 July 2025 00:00
Orbit: 548 x 720 km, 97.7° (Epoch: 11 July)

Date Brightness Start Highest point End Pass type
(mag) Time Alt. Az. Time Alt. Az. Time Alt. Az.
12 Jul ? 20:41:02 10° S 20:45:42 76° WSW 20:50:34 10° NNW visible
12 Jul ? 22:22:09 10° W 22:22:59 10° W 22:23:49 10° WNW visible
13 Jul ? 21:02:56 10° S 21:07:27 48° W 21:12:09 10° NNW visible
14 Jul ? 21:25:06 10° SSW 21:29:17 31° W 21:33:35 10° NNW visible
15 Jul ? 20:09:45 10° SSE 20:14:23 58° ENE 20:19:11 10° N visible
15 Jul ? 21:47:39 10° SW 21:51:10 20° W 21:54:46 10° NW visible
16 Jul ? 20:31:15 10° SSE 20:36:00 89° E 20:40:55 10° NNW visible
16 Jul ? 22:10:52 10° WSW 22:13:07 13° W 22:15:25 10° WNW visible
17 Jul ? 20:53:04 10° S 20:57:42 59° W 21:02:32 10° NNW visible
18 Jul ? 21:15:01 10° SSW 21:19:28 38° W 21:24:02 10° NNW visible
19 Jul ? 20:00:04 10° SE 20:04:40 48° ENE 20:09:23 10° N visible
19 Jul ? 21:37:22 10° SSW 21:41:17 25° W 21:45:18 10° NW visible
20 Jul ? 20:21:27 10° SSE 20:26:15 75° ENE 20:31:09 10° N visible
20 Jul ? 22:00:12 10° SW 22:03:12 16° W 22:06:14 10° NW visible
21 Jul ? 20:43:15 11° S 20:47:52 72° WSW 20:52:47 10° NNW visible
21 Jul ? 22:24:42 10° W 22:25:09 10° W 22:25:37 10° WNW visible
